Zurück zum Katalog

DMSP 5D-2 F13 DEB

AktivSSO
NORAD 40401·DEBRIS·🇺🇸 United States

Gestartet Mar 24, 1995 von Vandenberg Space Force Base

Loading…

Nächste Überflüge (nächste 24 Stunden)

TLE

AlterndSource: Space-Track

Epoche: Sep 9, 2026, 18:07 UTC

1 40401U 95015N   26252.75506229  .00001903  00000-0  88557-3 0  9991
2 40401  98.9771 234.5617 0047513 242.1124 117.5236 14.21193043592689

Verfolge DMSP 5D-2 F13 DEB in Echtzeit mit AllMySat

Download on the App Store